Le Ponant — FGZZ — position and weather

sailwx.info

Track history (hours):
 
Tides and Currents Weather Stations Pressure Air Temp Water Temp Dewpoint Dewpoint Depression Visibility Wind Speed Wind Dir Waves Ship Positions

Le Ponant

Operator: Compangy des Iles du Ponant

Last reported at 2019-Oct-20 02:55 UTC. Time now 2019-Oct-20 11:48 UTC.
Position N 41°48' E 008°38'.

Length 84 m; draft 4.2 m.

Type: Passenger vessel. MMSI: 227186000.

Date/timePositionNaut miles runAvg speedWind from/ knotsBaromVisibWave heightAir tempDewpointWater temp
2019-Oct-20 02:55N 41°48' E 008°38'3 2.9
2019-Oct-20 01:51N 41°46' E 008°35'0 0.3
2019-Oct-20 00:48N 41°47' E 008°34'3 7.1
2019-Oct-20 00:20N 41°48' E 008°38'8 6.3
2019-Oct-19 23:03N 41°43' E 008°30'12 4.1
2019-Oct-19 20:13N 41°41' E 008°14'9 9.8
2019-Oct-19 19:16N 41°45' E 008°25'510.0
2019-Oct-19 18:43N 41°48' E 008°31'5 0.5
2019-Oct-19 08:41N 41°46' E 008°38'2 8.6
2019-Oct-19 08:30N 41°45' E 008°37'47 5.4
2019-Oct-18 23:40N 41°53' E 009°40'210.1
2019-Oct-18 23:30N 41°55' E 009°40'610.3
2019-Oct-18 22:56N 42°00' E 009°42'55 9.1
2019-Oct-18 16:54N 42°51' E 010°12'26 1.9
2019-Oct-18 02:57N 43°11' E 009°48'37 9.9
2019-Oct-17 23:11N 43°20' E 008°59'21 9.7
2019-Oct-17 21:01N 43°24' E 008°30'010.6
2019-Oct-17 21:01N 43°24' E 008°30'2310.0
2019-Oct-17 18:40N 43°30' E 007°59'210.3
2019-Oct-17 18:30N 43°30' E 007°56'510.1
2019-Oct-17 18:00N 43°31' E 007°50'510.1
2019-Oct-17 17:30N 43°33' E 007°43'510.2
2019-Oct-17 17:01N 43°35' E 007°37'5 9.9
2019-Oct-17 16:30N 43°36' E 007°30'5 9.3
2019-Oct-17 16:01N 43°38' E 007°24'4 7.3
2019-Oct-17 15:30N 43°40' E 007°20'3 5.2
2019-Oct-17 15:01N 43°42' E 007°17'0 0.2
2019-Oct-17 14:28N 43°42' E 007°17'0 0.0
2019-Oct-17 13:58N 43°42' E 007°17'0 0.0
2019-Oct-17 13:29N 43°42' E 007°17'0 0.0
2019-Oct-17 13:00N 43°42' E 007°17'0 0.0
2019-Oct-17 12:29N 43°42' E 007°17'0 0.0
2019-Oct-17 11:59N 43°42' E 007°17'0 0.0
2019-Oct-17 11:29N 43°42' E 007°17'0 0.0
2019-Oct-17 10:59N 43°42' E 007°17'0 0.0
2019-Oct-17 10:29N 43°42' E 007°17'0 0.0
2019-Oct-17 10:00N 43°42' E 007°17'0 0.0
2019-Oct-17 09:30N 43°42' E 007°17'0 0.0
2019-Oct-17 08:57N 43°42' E 007°17'0 0.0
2019-Oct-17 08:29N 43°42' E 007°17'0 0.0
2019-Oct-17 07:56N 43°42' E 007°17'0 0.0
2019-Oct-17 07:29N 43°42' E 007°17'0 0.0
2019-Oct-17 07:01N 43°42' E 007°17'1 1.7
2019-Oct-17 06:30N 43°41' E 007°18'5 9.4
2019-Oct-17 06:01N 43°39' E 007°23'5 9.7
2019-Oct-17 05:31N 43°37' E 007°30'5 9.7
2019-Oct-17 05:01N 43°36' E 007°36'5 9.5
2019-Oct-17 04:31N 43°35' E 007°43'5 9.4
2019-Oct-17 04:00N 43°33' E 007°49'5 9.6
2019-Oct-17 03:31N 43°32' E 007°55'7 9.5
2019-Oct-17 02:49N 43°31' E 008°04'4 9.3
2019-Oct-17 02:25N 43°30' E 008°09'28 9.3
2019-Oct-16 23:27N 43°23' E 008°46'8 8.7
2019-Oct-16 22:35N 43°21' E 008°56'1 8.6
2019-Oct-16 22:31N 43°20' E 008°56'5 8.3
2019-Oct-16 21:58N 43°19' E 009°02'9 8.1
2019-Oct-16 20:51N 43°17' E 009°14'3 8.0
2019-Oct-16 20:30N 43°16' E 009°18'4 8.0
2019-Oct-16 20:01N 43°15' E 009°23'4 8.0
2019-Oct-16 19:30N 43°14' E 009°29'19 7.8
2019-Oct-16 17:05N 43°08' E 009°54'23 2.0
2019-Oct-16 05:17N 42°52' E 010°15'2 7.6
2019-Oct-16 05:00N 42°52' E 010°13'174 3.6
2019-Oct-14 05:07N 40°52' E 013°01'34 7.7
2019-Oct-14 00:45N 40°37' E 013°41'2 8.2
2019-Oct-14 00:27N 40°36' E 013°44'4 8.2
2019-Oct-14 00:00N 40°34' E 013°48'4 7.6
2019-Oct-13 23:29N 40°32' E 013°53'3 7.0
2019-Oct-13 23:00N 40°30' E 013°56'8 8.3
2019-Oct-13 22:05N 40°26' E 014°05'1 8.3
2019-Oct-13 22:00N 40°26' E 014°06'4 8.4
2019-Oct-13 21:30N 40°24' E 014°11'2 4.2
2019-Oct-13 21:00N 40°25' E 014°13'2 3.5
2019-Oct-13 20:30N 40°26' E 014°15'2 3.3
2019-Oct-13 20:00N 40°27' E 014°17'1 2.8
2019-Oct-13 19:30N 40°27' E 014°19'1 2.8
2019-Oct-13 19:00N 40°28' E 014°20'1 2.8
2019-Oct-13 18:30N 40°29' E 014°21'2 3.2
2019-Oct-13 18:00N 40°30' E 014°23'1 2.9
2019-Oct-13 17:30N 40°31' E 014°24'2 3.0
2019-Oct-13 17:00N 40°33' E 014°25'3 5.6
2019-Oct-13 16:30N 40°35' E 014°28'3 5.9
2019-Oct-13 16:00N 40°37' E 014°30'5 0.5
2019-Oct-13 05:53N 40°37' E 014°37'3 8.3
2019-Oct-13 05:30N 40°34' E 014°38'5 8.4
2019-Oct-13 04:55N 40°29' E 014°38'3 7.8
2019-Oct-13 04:30N 40°25' E 014°39'4 7.9
2019-Oct-13 04:00N 40°22' E 014°39'4 8.2
2019-Oct-13 03:28N 40°17' E 014°40'91 8.6
2019-Oct-12 16:54N 38°49' E 015°09'3 6.6
2019-Oct-12 16:28N 38°47' E 015°07'1 1.3
2019-Oct-12 15:38N 38°47' E 015°09'2 2.0
2019-Oct-12 14:51N 38°47' E 015°11'2 3.7
2019-Oct-12 14:18N 38°45' E 015°11'5 8.6
2019-Oct-12 13:46N 38°41' E 015°10'2 9.3
2019-Oct-12 13:30N 38°38' E 015°09'4 8.9
2019-Oct-12 13:00N 38°34' E 015°07'5 9.2
2019-Oct-12 12:29N 38°31' E 015°02'4 8.5
2019-Oct-12 12:00N 38°28' E 014°58'1 1.5
2019-Oct-12 11:30N 38°28' E 014°58'0 0.0
2019-Oct-12 11:00N 38°28' E 014°58'0 0.0
2019-Oct-12 10:21N 38°28' E 014°58'0 0.0
2019-Oct-12 09:58N 38°28' E 014°58'0 0.0
2019-Oct-12 09:31N 38°28' E 014°58'0 0.0
2019-Oct-12 09:00N 38°28' E 014°58'0 0.0
2019-Oct-12 08:27N 38°28' E 014°58'0 0.0
2019-Oct-12 07:56N 38°28' E 014°58'0 0.0
2019-Oct-12 07:27N 38°28' E 014°58'0 0.0
2019-Oct-12 06:59N 38°28' E 014°58'0 0.0
2019-Oct-12 06:31N 38°28' E 014°58'0 0.0
2019-Oct-12 06:00N 38°28' E 014°58'0 0.0
2019-Oct-12 05:30N 38°28' E 014°58'1 2.1
2019-Oct-12 05:00N 38°28' E 014°59'4 7.8
2019-Oct-12 04:30N 38°26' E 015°04'4 8.1
2019-Oct-12 04:01N 38°25' E 015°08'3 6.0
2019-Oct-12 03:30N 38°25' E 015°12'0 0.5
2019-Oct-12 03:00N 38°25' E 015°12'4 7.5
2019-Oct-12 02:30N 38°26' E 015°07'1 2.4
2019-Oct-12 02:00N 38°26' E 015°08'4 8.0
2019-Oct-12 01:30N 38°24' E 015°13'4 8.0
2019-Oct-12 01:00N 38°23' E 015°18'4 7.9
2019-Oct-12 00:30N 38°22' E 015°23'4 7.7
2019-Oct-12 00:00N 38°21' E 015°28'4 7.6
2019-Oct-11 23:31N 38°20' E 015°32'4 7.7
2019-Oct-11 23:00N 38°19' E 015°37'4 7.4
2019-Oct-11 22:30N 38°18' E 015°41'3 5.6
2019-Oct-11 22:00N 38°15' E 015°40'2 5.1
2019-Oct-11 21:30N 38°14' E 015°37'3 6.8
2019-Oct-11 21:00N 38°12' E 015°34'0 0.2
2019-Oct-11 20:05N 38°12' E 015°33'0 0.0
2019-Oct-11 16:05N 38°12' E 015°33'0 0.0
2019-Oct-11 15:52N 38°12' E 015°33'0 0.0
2019-Oct-11 11:36N 38°12' E 015°33'0 0.3
2019-Oct-11 11:25N 38°12' E 015°34'3 6.5
2019-Oct-11 11:01N 38°13' E 015°36'5 9.1
2019-Oct-11 10:30N 38°08' E 015°36'4 8.8
2019-Oct-11 10:00N 38°04' E 015°35'4 8.9
2019-Oct-11 09:30N 37°60' E 015°34'6 7.8
2019-Oct-11 08:43N 37°54' E 015°31'2 9.0
2019-Oct-11 08:27N 37°53' E 015°28'8 7.0
2019-Oct-11 07:18N 37°46' E 015°25'  
Track history (hours):
 
Tides and Currents Weather Stations Pressure Air Temp Water Temp Dewpoint Dewpoint Depression Visibility Wind Speed Wind Dir Waves Ship Positions

Le Ponant

Operator: Compangy des Iles du Ponant

Last reported at 2019-Oct-20 02:55 UTC. Time now 2019-Oct-20 11:48 UTC.
Position N 41°48' E 008°38'.

Length 84 m; draft 4.2 m.

Type: Passenger vessel. MMSI: 227186000.

Date/timePositionNaut miles runAvg speedWind from/ knotsBaromVisibWave heightAir tempDewpointWater temp
2019-Oct-20 02:55N 41°48' E 008°38'3 2.9
2019-Oct-20 01:51N 41°46' E 008°35'0 0.3
2019-Oct-20 00:48N 41°47' E 008°34'3 7.1
2019-Oct-20 00:20N 41°48' E 008°38'8 6.3
2019-Oct-19 23:03N 41°43' E 008°30'12 4.1
2019-Oct-19 20:13N 41°41' E 008°14'9 9.8
2019-Oct-19 19:16N 41°45' E 008°25'510.0
2019-Oct-19 18:43N 41°48' E 008°31'5 0.5
2019-Oct-19 08:41N 41°46' E 008°38'2 8.6
2019-Oct-19 08:30N 41°45' E 008°37'47 5.4
2019-Oct-18 23:40N 41°53' E 009°40'210.1
2019-Oct-18 23:30N 41°55' E 009°40'610.3
2019-Oct-18 22:56N 42°00' E 009°42'55 9.1
2019-Oct-18 16:54N 42°51' E 010°12'26 1.9
2019-Oct-18 02:57N 43°11' E 009°48'37 9.9
2019-Oct-17 23:11N 43°20' E 008°59'21 9.7
2019-Oct-17 21:01N 43°24' E 008°30'010.6
2019-Oct-17 21:01N 43°24' E 008°30'2310.0
2019-Oct-17 18:40N 43°30' E 007°59'210.3
2019-Oct-17 18:30N 43°30' E 007°56'510.1
2019-Oct-17 18:00N 43°31' E 007°50'510.1
2019-Oct-17 17:30N 43°33' E 007°43'510.2
2019-Oct-17 17:01N 43°35' E 007°37'5 9.9
2019-Oct-17 16:30N 43°36' E 007°30'5 9.3
2019-Oct-17 16:01N 43°38' E 007°24'4 7.3
2019-Oct-17 15:30N 43°40' E 007°20'3 5.2
2019-Oct-17 15:01N 43°42' E 007°17'0 0.2
2019-Oct-17 14:28N 43°42' E 007°17'0 0.0
2019-Oct-17 13:58N 43°42' E 007°17'0 0.0
2019-Oct-17 13:29N 43°42' E 007°17'0 0.0
2019-Oct-17 13:00N 43°42' E 007°17'0 0.0
2019-Oct-17 12:29N 43°42' E 007°17'0 0.0
2019-Oct-17 11:59N 43°42' E 007°17'0 0.0
2019-Oct-17 11:29N 43°42' E 007°17'0 0.0
2019-Oct-17 10:59N 43°42' E 007°17'0 0.0
2019-Oct-17 10:29N 43°42' E 007°17'0 0.0
2019-Oct-17 10:00N 43°42' E 007°17'0 0.0
2019-Oct-17 09:30N 43°42' E 007°17'0 0.0
2019-Oct-17 08:57N 43°42' E 007°17'0 0.0
2019-Oct-17 08:29N 43°42' E 007°17'0 0.0
2019-Oct-17 07:56N 43°42' E 007°17'0 0.0
2019-Oct-17 07:29N 43°42' E 007°17'0 0.0
2019-Oct-17 07:01N 43°42' E 007°17'1 1.7
2019-Oct-17 06:30N 43°41' E 007°18'5 9.4
2019-Oct-17 06:01N 43°39' E 007°23'5 9.7
2019-Oct-17 05:31N 43°37' E 007°30'5 9.7
2019-Oct-17 05:01N 43°36' E 007°36'5 9.5
2019-Oct-17 04:31N 43°35' E 007°43'5 9.4
2019-Oct-17 04:00N 43°33' E 007°49'5 9.6
2019-Oct-17 03:31N 43°32' E 007°55'7 9.5
2019-Oct-17 02:49N 43°31' E 008°04'4 9.3
2019-Oct-17 02:25N 43°30' E 008°09'28 9.3
2019-Oct-16 23:27N 43°23' E 008°46'8 8.7
2019-Oct-16 22:35N 43°21' E 008°56'1 8.6
2019-Oct-16 22:31N 43°20' E 008°56'5 8.3
2019-Oct-16 21:58N 43°19' E 009°02'9 8.1
2019-Oct-16 20:51N 43°17' E 009°14'3 8.0
2019-Oct-16 20:30N 43°16' E 009°18'4 8.0
2019-Oct-16 20:01N 43°15' E 009°23'4 8.0
2019-Oct-16 19:30N 43°14' E 009°29'19 7.8
2019-Oct-16 17:05N 43°08' E 009°54'23 2.0
2019-Oct-16 05:17N 42°52' E 010°15'2 7.6
2019-Oct-16 05:00N 42°52' E 010°13'174 3.6
2019-Oct-14 05:07N 40°52' E 013°01'34 7.7
2019-Oct-14 00:45N 40°37' E 013°41'2 8.2
2019-Oct-14 00:27N 40°36' E 013°44'4 8.2
2019-Oct-14 00:00N 40°34' E 013°48'4 7.6
2019-Oct-13 23:29N 40°32' E 013°53'3 7.0
2019-Oct-13 23:00N 40°30' E 013°56'8 8.3
2019-Oct-13 22:05N 40°26' E 014°05'1 8.3
2019-Oct-13 22:00N 40°26' E 014°06'4 8.4
2019-Oct-13 21:30N 40°24' E 014°11'2 4.2
2019-Oct-13 21:00N 40°25' E 014°13'2 3.5
2019-Oct-13 20:30N 40°26' E 014°15'2 3.3
2019-Oct-13 20:00N 40°27' E 014°17'1 2.8
2019-Oct-13 19:30N 40°27' E 014°19'1 2.8
2019-Oct-13 19:00N 40°28' E 014°20'1 2.8
2019-Oct-13 18:30N 40°29' E 014°21'2 3.2
2019-Oct-13 18:00N 40°30' E 014°23'1 2.9
2019-Oct-13 17:30N 40°31' E 014°24'2 3.0
2019-Oct-13 17:00N 40°33' E 014°25'3 5.6
2019-Oct-13 16:30N 40°35' E 014°28'3 5.9
2019-Oct-13 16:00N 40°37' E 014°30'5 0.5
2019-Oct-13 05:53N 40°37' E 014°37'3 8.3
2019-Oct-13 05:30N 40°34' E 014°38'5 8.4
2019-Oct-13 04:55N 40°29' E 014°38'3 7.8
2019-Oct-13 04:30N 40°25' E 014°39'4 7.9
2019-Oct-13 04:00N 40°22' E 014°39'4 8.2
2019-Oct-13 03:28N 40°17' E 014°40'91 8.6
2019-Oct-12 16:54N 38°49' E 015°09'3 6.6
2019-Oct-12 16:28N 38°47' E 015°07'1 1.3
2019-Oct-12 15:38N 38°47' E 015°09'2 2.0
2019-Oct-12 14:51N 38°47' E 015°11'2 3.7
2019-Oct-12 14:18N 38°45' E 015°11'5 8.6
2019-Oct-12 13:46N 38°41' E 015°10'2 9.3
2019-Oct-12 13:30N 38°38' E 015°09'4 8.9
2019-Oct-12 13:00N 38°34' E 015°07'5 9.2
2019-Oct-12 12:29N 38°31' E 015°02'4 8.5
2019-Oct-12 12:00N 38°28' E 014°58'1 1.5
2019-Oct-12 11:30N 38°28' E 014°58'0 0.0
2019-Oct-12 11:00N 38°28' E 014°58'0 0.0
2019-Oct-12 10:21N 38°28' E 014°58'0 0.0
2019-Oct-12 09:58N 38°28' E 014°58'0 0.0
2019-Oct-12 09:31N 38°28' E 014°58'0 0.0
2019-Oct-12 09:00N 38°28' E 014°58'0 0.0
2019-Oct-12 08:27N 38°28' E 014°58'0 0.0
2019-Oct-12 07:56N 38°28' E 014°58'0 0.0
2019-Oct-12 07:27N 38°28' E 014°58'0 0.0
2019-Oct-12 06:59N 38°28' E 014°58'0 0.0
2019-Oct-12 06:31N 38°28' E 014°58'0 0.0
2019-Oct-12 06:00N 38°28' E 014°58'0 0.0
2019-Oct-12 05:30N 38°28' E 014°58'1 2.1
2019-Oct-12 05:00N 38°28' E 014°59'4 7.8
2019-Oct-12 04:30N 38°26' E 015°04'4 8.1
2019-Oct-12 04:01N 38°25' E 015°08'3 6.0
2019-Oct-12 03:30N 38°25' E 015°12'0 0.5
2019-Oct-12 03:00N 38°25' E 015°12'4 7.5
2019-Oct-12 02:30N 38°26' E 015°07'1 2.4
2019-Oct-12 02:00N 38°26' E 015°08'4 8.0
2019-Oct-12 01:30N 38°24' E 015°13'4 8.0
2019-Oct-12 01:00N 38°23' E 015°18'4 7.9
2019-Oct-12 00:30N 38°22' E 015°23'4 7.7
2019-Oct-12 00:00N 38°21' E 015°28'4 7.6
2019-Oct-11 23:31N 38°20' E 015°32'4 7.7
2019-Oct-11 23:00N 38°19' E 015°37'4 7.4
2019-Oct-11 22:30N 38°18' E 015°41'3 5.6
2019-Oct-11 22:00N 38°15' E 015°40'2 5.1
2019-Oct-11 21:30N 38°14' E 015°37'3 6.8
2019-Oct-11 21:00N 38°12' E 015°34'0 0.2
2019-Oct-11 20:05N 38°12' E 015°33'0 0.0
2019-Oct-11 16:05N 38°12' E 015°33'0 0.0
2019-Oct-11 15:52N 38°12' E 015°33'0 0.0
2019-Oct-11 11:36N 38°12' E 015°33'0 0.3
2019-Oct-11 11:25N 38°12' E 015°34'3 6.5
2019-Oct-11 11:01N 38°13' E 015°36'5 9.1
2019-Oct-11 10:30N 38°08' E 015°36'4 8.8
2019-Oct-11 10:00N 38°04' E 015°35'4 8.9
2019-Oct-11 09:30N 37°60' E 015°34'6 7.8
2019-Oct-11 08:43N 37°54' E 015°31'2 9.0
2019-Oct-11 08:27N 37°53' E 015°28'8 7.0
2019-Oct-11 07:18N 37°46' E 015°25'  

Dump ship's entire track history